Total_Precipitation_Accumulation
0.01 0.01 0.02 0.04 0.15 0.37 0.61 0.55 0.66 0.66 0.68 0.60 0.62 0.70 0.78 0.89 1.11 1.90 1.26 0.65 0.46 0.50 0.46 0.51 0.50 0.51 0.54 0.56 0.63 0.74 0.76 0.69 0.71 0.80 1.00 1.00 1.02 1.06 1.10 1.13 1.23 1.26 1.26 1.11 1.03 1.06 1.07 1.07 1.07
0.01 0.02 0.04 0.06 0.22 0.60 0.64 0.57 0.65 0.66 0.58 0.49 0.56 0.69 0.67 0.65 0.61 0.63 0.75 0.60 0.45 0.42 0.47 0.46 0.46 0.50 0.50 0.54 0.57 0.71 0.80 0.74 0.73 0.75 0.95 1.06 1.11 1.12 1.10 1.14 1.26 1.45 1.50 1.44 1.25 1.16 1.14 1.15 1.08
0.02 0.04 0.07 0.08 0.26 0.54 0.66 0.54 0.57 0.55 0.49 0.51 0.58 0.67 0.74 0.78 0.70 0.63 0.61 0.42 0.49 0.43 0.50 0.54 0.48 0.48 0.47 0.54 0.62 0.73 0.85 0.88 0.86 0.88 0.97 1.18 1.21 1.18 1.17 1.22 1.22 1.41 1.54 1.56 1.44 1.37 1.31 1.28 1.15
0.03 0.05 0.07 0.13 0.26 0.38 0.49 0.49 0.59 0.66 0.58 0.58 0.58 0.74 0.84 0.74 0.70 0.65 0.59 0.51 0.47 0.48 0.53 0.48 0.46 0.45 0.50 0.60 0.69 0.78 1.00 1.02 0.98 1.02 1.11 1.26 1.24 1.22 1.23 1.32 1.28 1.30 1.35 1.44 1.48 1.50 1.49 1.45 1.23
0.05 0.06 0.09 0.18 0.26 0.31 0.43 0.52 0.68 0.75 0.61 0.61 0.65 0.88 1.03 0.94 0.85 0.81 0.73 0.66 0.54 0.53 0.60 0.54 0.53 0.55 0.57 0.62 0.71 0.88 1.02 1.05 1.06 1.13 1.24 1.34 1.24 1.19 1.27 1.39 1.45 1.46 1.47 1.51 1.50 1.52 1.47 1.53 1.42
0.05 0.06 0.12 0.24 0.28 0.32 0.38 0.51 0.57 0.65 0.62 0.61 0.71 1.11 1.48 1.48 1.39 1.27 1.13 0.87 0.69 0.61 0.70 0.71 0.70 0.66 0.67 0.70 0.74 0.87 1.00 1.03 1.12 1.18 1.25 1.33 1.33 1.31 1.36 1.46 1.61 1.64 1.61 1.53 1.42 1.34 1.30 1.50 1.49
0.08 0.11 0.13 0.22 0.31 0.36 0.40 0.54 0.62 0.66 0.67 0.74 0.93 1.17 1.50 1.67 1.75 1.63 1.47 1.19 1.12 1.04 1.07 1.05 0.92 0.80 0.77 0.84 0.87 0.92 0.95 0.98 1.10 1.19 1.14 1.15 1.27 1.42 1.41 1.44 1.59 1.66 1.54 1.44 1.31 1.29 1.21 1.37 1.44
0.07 0.09 0.11 0.19 0.31 0.40 0.45 0.63 0.63 0.63 0.73 0.85 1.08 1.33 1.72 1.67 1.51 1.66 1.72 1.66 1.61 1.67 1.64 1.25 1.05 0.99 1.00 1.02 1.05 1.07 1.04 1.02 1.07 1.15 1.20 1.21 1.25 1.38 1.52 1.50 1.53 1.60 1.49 1.41 1.32 1.35 1.31 1.37 1.50
0.08 0.09 0.11 0.20 0.32 0.40 0.39 0.57 0.55 0.49 0.58 0.77 1.03 1.18 1.37 1.33 1.34 1.66 1.87 2.16 2.28 2.09 1.91 1.60 1.30 1.25 1.22 1.10 1.05 1.18 1.18 1.13 1.16 1.23 1.24 1.26 1.37 1.62 1.73 1.56 1.60 1.57 1.56 1.53 1.51 1.51 1.50 1.59 1.65
0.06 0.07 0.11 0.17 0.21 0.30 0.40 0.51 0.48 0.55 0.63 0.76 0.88 1.14 1.36 1.35 1.62 1.82 2.01 2.48 2.40 2.27 2.06 1.96 1.79 1.60 1.55 1.28 1.39 1.57 1.44 1.40 1.33 1.48 1.46 1.56 1.83 2.01 1.90 2.09 2.09 2.01 1.92 1.86 1.89 1.89 1.78 1.71 1.62
0.05 0.07 0.11 0.17 0.17 0.24 0.40 0.49 0.49 0.62 0.85 1.13 1.19 1.23 1.32 1.40 1.71 1.96 2.17 2.54 2.64 2.41 2.10 2.09 2.05 2.03 2.06 2.04 1.83 1.82 1.83 1.89 1.79 1.93 1.86 2.02 2.17 2.12 2.23 2.47 2.44 2.34 2.24 2.14 2.22 2.12 1.76 1.73 1.85
0.09 0.10 0.15 0.16 0.19 0.28 0.46 0.57 0.77 0.84 1.00 1.26 1.36 1.33 1.51 1.62 1.77 1.92 2.16 2.53 2.79 2.69 2.50 2.59 2.38 2.31 2.40 2.61 2.52 2.14 2.04 2.04 1.97 2.21 2.18 2.35 2.52 2.51 2.67 2.77 2.63 2.70 2.69 2.69 2.62 2.52 2.18 2.11 2.09
0.10 0.12 0.16 0.15 0.23 0.35 0.52 0.60 0.75 0.77 0.66 0.95 1.22 1.41 1.64 1.62 1.80 1.95 2.29 2.87 3.14 3.09 2.95 3.09 2.97 2.85 2.90 3.16 3.14 2.59 2.47 2.63 2.86 2.93 2.70 2.70 2.72 2.77 3.04 3.05 2.97 2.97 3.11 3.06 2.91 2.72 2.72 2.72 2.53
0.09 0.11 0.14 0.17 0.22 0.31 0.45 0.48 0.62 0.84 0.79 0.91 1.10 1.39 1.66 1.86 2.14 2.47 2.76 3.22 3.51 3.56 3.39 3.36 3.34 3.32 3.24 3.31 3.34 3.31 3.10 3.18 3.37 3.38 3.31 3.24 3.26 3.35 3.51 3.48 3.32 3.16 3.29 3.29 3.23 3.08 3.15 3.15 3.11
0.11 0.12 0.17 0.23 0.28 0.30 0.35 0.56 0.72 0.90 1.00 1.09 1.21 1.41 1.72 2.00 2.28 2.61 3.11 3.41 3.44 3.43 3.38 3.47 3.43 3.59 3.73 3.75 3.58 3.61 3.63 3.76 3.91 3.88 3.69 3.54 3.59 3.93 4.01 3.99 3.66 3.43 3.50 3.74 3.76 3.68 3.65 3.39 3.30
0.15 0.17 0.23 0.29 0.30 0.36 0.35 0.67 0.88 0.77 0.89 1.17 1.35 1.47 1.63 1.84 2.24 2.60 3.03 3.29 3.39 3.73 3.77 3.76 3.73 3.85 4.13 4.18 4.03 3.95 3.90 4.22 4.32 4.27 4.14 3.85 3.80 3.99 4.15 4.12 3.95 3.82 3.79 4.08 4.23 4.20 4.15 3.95 3.86
0.22 0.27 0.31 0.34 0.31 0.36 0.41 0.70 0.91 0.87 0.87 1.13 1.52 1.74 1.74 1.95 2.36 2.74 3.09 3.41 3.55 3.70 3.92 3.88 3.98 4.23 4.29 4.40 4.29 4.34 4.49 4.46 4.37 4.31 4.32 4.23 4.16 4.31 4.43 4.32 4.31 4.36 4.47 4.46 4.20 4.35 4.21 4.20 4.12
0.27 0.29 0.34 0.37 0.36 0.37 0.47 0.67 0.87 0.98 1.14 1.25 1.49 1.80 1.98 1.98 2.18 2.50 2.97 3.44 3.64 3.70 3.72 3.86 3.96 4.17 4.37 4.58 4.60 4.65 4.75 4.83 4.94 5.01 4.99 4.75 4.73 4.72 5.02 5.00 4.91 4.90 4.89 4.70 4.61 4.65 4.41 4.23 4.12
0.24 0.32 0.37 0.39 0.36 0.45 0.56 0.67 0.90 1.07 1.27 1.32 1.42 1.65 1.87 2.05 2.24 2.57 2.93 3.26 3.77 3.85 3.74 3.83 4.03 4.24 4.39 4.69 4.81 5.10 5.42 5.63 5.78 5.72 5.52 5.54 5.46 5.56 5.63 5.44 5.32 5.17 5.15 5.07 5.03 4.89 4.67 4.37 4.28
0.25 0.40 0.44 0.41 0.38 0.48 0.65 0.81 1.01 1.19 1.27 1.25 1.42 1.61 1.80 2.20 2.58 2.80 2.96 3.38 3.90 4.13 4.16 4.20 4.36 4.68 4.91 5.20 5.68 5.98 6.27 6.53 6.69 6.71 6.25 5.99 5.85 5.75 5.66 5.72 5.67 5.51 5.40 5.26 5.08 4.96 4.74 4.36 4.30
0.19 0.29 0.39 0.43 0.45 0.54 0.76 1.09 1.27 1.37 1.47 1.64 1.87 2.04 2.13 2.37 2.76 2.87 2.93 3.34 3.70 3.96 4.13 4.33 4.56 5.01 5.56 5.95 6.36 6.71 6.94 6.98 6.78 6.47 6.37 6.19 6.02 5.88 5.70 5.59 5.40 5.31 5.19 5.10 4.95 4.75 4.57 4.34 4.20
0.19 0.21 0.33 0.38 0.51 0.65 0.78 1.40 1.74 1.72 1.81 2.08 2.29 2.31 2.38 2.48 2.68 2.83 2.96 3.26 3.60 3.90 4.08 4.44 4.98 5.67 6.19 6.59 7.12 7.62 7.73 7.46 7.11 6.66 6.23 5.99 5.76 5.45 5.20 5.12 5.04 4.92 4.57 4.38 4.26 4.23 4.08 3.93 3.74
0.18 0.17 0.27 0.33 0.41 0.60 0.82 1.34 2.20 2.23 2.26 2.46 2.62 2.41 2.39 2.30 2.37 2.63 2.79 3.02 3.52 3.80 4.05 4.41 5.02 5.77 6.47 7.24 7.84 8.24 8.10 7.72 7.27 6.59 6.03 5.58 5.20 4.86 4.58 4.47 4.37 4.14 3.74 3.40 3.31 3.50 3.54 3.53 3.42
0.15 0.19 0.27 0.34 0.45 0.73 0.79 1.23 2.04 2.36 2.52 2.63 2.51 2.26 2.17 2.09 2.12 2.25 2.46 2.81 3.32 3.59 3.78 4.15 4.79 5.58 6.26 6.82 7.29 7.52 7.40 7.19 6.64 5.95 5.35 4.93 4.63 4.32 3.94 3.60 3.37 3.12 2.94 2.75 2.73 2.83 2.91 3.15 3.24
0.18 0.27 0.57 0.79 0.91 0.93 0.74 1.11 1.86 2.10 2.21 2.10 2.05 2.11 1.94 2.00 1.98 2.01 2.18 2.47 2.89 3.05 3.39 3.78 4.23 4.92 5.37 5.68 6.01 6.20 6.27 6.06 5.73 5.24 4.78 4.35 3.88 3.53 3.22 2.90 2.78 2.63 2.54 2.48 2.51 2.54 2.51 2.62 2.80
0.21 0.26 0.66 1.00 1.02 1.02 0.99 1.49 2.05 2.00 1.89 1.76 1.73 1.78 1.79 1.87 1.94 1.98 2.15 2.35 2.62 2.82 2.99 3.14 3.41 3.83 4.01 4.05 4.27 4.55 4.59 4.54 4.41 4.14 3.77 3.48 3.13 2.74 2.52 2.30 2.13 2.10 2.17 2.13 2.23 2.26 2.28 2.29 2.36
0.20 0.22 0.33 0.62 0.73 1.15 1.44 1.90 2.35 2.10 1.99 1.92 1.86 1.71 1.67 1.68 1.77 1.96 2.08 2.11 2.14 2.19 2.28 2.39 2.58 2.75 2.82 2.91 3.01 3.15 3.19 3.17 3.12 3.00 2.75 2.55 2.38 2.09 1.92 1.84 1.81 1.78 1.84 1.96 1.99 1.94 1.97 2.08 2.12
0.18 0.25 0.39 0.70 1.17 1.45 1.71 2.36 2.93 2.72 2.28 1.95 1.73 1.54 1.49 1.56 1.67 1.84 1.97 1.95 1.94 1.88 1.96 2.04 2.14 2.22 2.23 2.30 2.31 2.27 2.31 2.32 2.33 2.21 2.09 2.03 1.94 1.81 1.75 1.67 1.62 1.57 1.56 1.59 1.68 1.72 1.75 1.80 1.92
0.27 0.34 0.50 0.77 0.95 1.46 1.98 2.72 2.76 2.95 2.76 2.25 1.90 1.74 1.65 1.56 1.64 1.83 1.83 1.78 1.76 1.74 1.79 1.86 1.85 1.86 1.84 1.82 1.86 1.87 1.81 1.82 1.90 1.90 1.79 1.76 1.70 1.57 1.53 1.45 1.37 1.32 1.31 1.36 1.48 1.51 1.55 1.62 1.71
0.27 0.34 0.52 1.02 1.16 1.21 1.92 2.93 2.68 2.91 2.98 2.66 2.33 2.17 2.04 1.77 1.73 1.76 1.72 1.66 1.58 1.61 1.65 1.71 1.66 1.61 1.67 1.59 1.54 1.56 1.61 1.60 1.64 1.64 1.54 1.51 1.55 1.47 1.43 1.32 1.20 1.13 1.13 1.19 1.25 1.27 1.30 1.43 1.48